| time (UTC) | temp C | wind direction | speed KPH | gust KPH | rain 1hr cm | rain 24hr cm | rain mn cm | humidity % | barometer mb |
| 20260902141023 | 17 | 128 | 6.4 | 19.3 | 0.00 | 0.00 | 0.00 | 1 | 1011.6 |
| 20260902140455 | 17 | 107 | 11.3 | 19.3 | 0.00 | 0.00 | 0.00 | 1 | 1011.6 |
| 20260902135941 | 17 | 115 | 9.7 | 20.9 | 0.00 | 0.00 | 0.00 | 1 | 1011.7 |
| 20260902135504 | 17 | 187 | 8.0 | 22.5 | 0.00 | 0.00 | 0.00 | 1 | 1011.8 |
| 20260902134950 | 17 | 141 | 6.4 | 19.3 | 0.00 | 0.00 | 0.00 | 1 | 1011.9 |
| 20260902134443 | 17 | 159 | 11.3 | 19.3 | 0.00 | 0.00 | 0.00 | 1 | 1011.9 |
| 20260902133958 | 17 | 224 | 8.0 | 17.7 | 0.00 | 0.00 | 0.00 | 1 | 1012.0 |
| 20260902133453 | 16 | 143 | 6.4 | 24.1 | 0.00 | 0.00 | 0.00 | 1 | 1012.1 |
| 20260902132948 | 16 | 137 | 9.7 | 24.1 | 0.00 | 0.00 | 0.00 | 1 | 1012.1 |
| 20260902132445 | 16 | 163 | 8.0 | 20.9 | 0.00 | 0.00 | 0.00 | 1 | 1012.1 |
| 20260902131959 | 16 | 136 | 6.4 | 20.9 | 0.00 | 0.00 | 0.00 | 1 | 1012.2 |
| 20260902131514 | 16 | 159 | 9.7 | 19.3 | 0.00 | 0.00 | 0.00 | 1 | 1012.3 |
| 20260902131008 | 16 | 115 | 8.0 | 19.3 | 0.00 | 0.00 | 0.00 | 1 | 1012.5 |
| 20260902130442 | 16 | 113 | 11.3 | 16.1 | 0.00 | 0.00 | 0.00 | 1 | 1012.5 |
| 20260902125957 | 16 | 140 | 6.4 | 25.7 | 0.00 | 0.00 | 0.00 | 1 | 1012.6 |
| 20260902125451 | 16 | 127 | 9.7 | 27.4 | 0.00 | 0.00 | 0.00 | 1 | 1012.6 |
| 20260902125005 | 16 | 143 | 6.4 | 19.3 | 0.00 | 0.00 | 0.00 | 1 | 1012.6 |
| 20260902124451 | 16 | 131 | 11.3 | 22.5 | 0.00 | 0.00 | 0.00 | 1 | 1012.5 |
| 20260902123946 | 16 | 148 | 9.7 | 22.5 | 0.00 | 0.00 | 0.00 | 1 | 1012.6 |
| 20260902123441 | 16 | 153 | 8.0 | 24.1 | 0.00 | 0.00 | 0.00 | 1 | 1012.6 |
| 20260902122951 | 16 | 153 | 11.3 | 24.1 | 0.00 | 0.00 | 0.00 | 1 | 1012.7 |
| 20260902122446 | 16 | 152 | 9.7 | 17.7 | 0.00 | 0.00 | 0.00 | 1 | 1012.7 |
| 20260902121940 | 16 | 140 | 3.2 | 16.1 | 0.00 | 0.00 | 0.00 | 1 | 1012.9 |
| 20260902121515 | 16 | 150 | 8.0 | 17.7 | 0.00 | 0.00 | 0.00 | 1 | 1012.9 |
| 20260902120949 | 16 | 182 | 6.4 | 17.7 | 0.00 | 0.00 | 0.00 | 1 | 1013.0 |
| 20260902120503 | 16 | 134 | 9.7 | 19.3 | 0.00 | 0.00 | 0.00 | 1 | 1013.0 |
| 20260902115958 | 16 | 124 | 8.0 | 19.3 | 0.00 | 0.00 | 0.00 | 1 | 1013.0 |
| 20260902115454 | 16 | 158 | 6.4 | 16.1 | 0.00 | 0.00 | 0.00 | 1 | 1013.1 |
| 20260902115009 | 16 | 167 | 4.8 | 22.5 | 0.00 | 0.00 | 0.00 | 1 | 1013.1 |
| 20260902114442 | 16 | 148 | 4.8 | 17.7 | 0.00 | 0.00 | 0.00 | 1 | 1013.2 |
| 20260902114016 | 16 | 99 | 8.0 | 17.7 | 0.00 | 0.00 | 0.00 | 1 | 1013.3 |
| 20260902113448 | 16 | 142 | 6.4 | 20.9 | 0.00 | 0.00 | 0.00 | 1 | 1013.4 |
| 20260902113003 | 16 | 144 | 8.0 | 17.7 | 0.00 | 0.00 | 0.00 | 1 | 1013.6 |
| 20260902112525 | 16 | 126 | 8.0 | 24.1 | 0.00 | 0.00 | 0.00 | 1 | 1013.6 |
| 20260902111948 | 16 | 173 | 11.3 | 24.1 | 0.00 | 0.00 | 0.00 | 1 | 1013.8 |
| 20260902111441 | 16 | 147 | 4.8 | 16.1 | 0.00 | 0.00 | 0.00 | 1 | 1013.9 |
| 20260902110956 | 16 | 84 | 4.8 | 16.1 | 0.00 | 0.00 | 0.00 | 1 | 1013.9 |
| 20260902110450 | 16 | 167 | 4.8 | 19.3 | 0.00 | 0.00 | 0.00 | 1 | 1013.9 |
| 20260902105944 | 15 | 167 | 8.0 | 19.3 | 0.00 | 0.00 | 0.00 | 1 | 1014.0 |
| 20260902105454 | 15 | 152 | 6.4 | 19.3 | 0.00 | 0.00 | 0.00 | 1 | 1014.0 |
| 20260902104948 | 15 | 167 | 9.7 | 22.5 | 0.00 | 0.00 | 0.00 | 1 | 1014.1 |
| 20260902104441 | 15 | 86 | 6.4 | 19.3 | 0.00 | 0.00 | 0.00 | 1 | 1014.1 |
| 20260902103956 | 15 | 162 | 8.0 | 24.1 | 0.00 | 0.00 | 0.00 | 1 | 1014.2 |
| 20260902103519 | 15 | 115 | 14.5 | 24.1 | 0.00 | 0.00 | 0.00 | 1 | 1014.3 |
| 20260902102943 | 15 | 140 | 12.9 | 24.1 | 0.00 | 0.00 | 0.00 | 1 | 1014.4 |
| 20260902102507 | 15 | 123 | 9.7 | 24.1 | 0.00 | 0.00 | 0.00 | 1 | 1014.4 |
| 20260902102002 | 15 | 134 | 8.0 | 20.9 | 0.00 | 0.00 | 0.00 | 1 | 1014.5 |
| 20260902101446 | 15 | 135 | 11.3 | 20.9 | 0.00 | 0.00 | 0.00 | 1 | 1014.6 |
| 20260902100959 | 15 | 133 | 6.4 | 19.3 | 0.00 | 0.00 | 0.00 | 1 | 1014.6 |
| 20260902100523 | 15 | 118 | 11.3 | 17.7 | 0.00 | 0.00 | 0.00 | 1 | 1014.6 |
| 20260902095945 | 15 | 179 | 8.0 | 17.7 | 0.00 | 0.00 | 0.00 | 1 | 1014.6 |
| 20260902095509 | 15 | 159 | 4.8 | 16.1 | 0.00 | 0.00 | 0.00 | 1 | 1014.7 |
| 20260902095003 | 15 | 139 | 6.4 | 16.1 | 0.00 | 0.00 | 0.00 | 1 | 1014.7 |
| 20260902094448 | 15 | 154 | 8.0 | 19.3 | 0.00 | 0.00 | 0.00 | 1 | 1014.8 |
| 20260902093950 | 15 | 138 | 6.4 | 19.3 | 0.00 | 0.00 | 0.00 | 1 | 1014.9 |
| 20260902093504 | 15 | 142 | 6.4 | 17.7 | 0.00 | 0.00 | 0.00 | 1 | 1014.9 |
| 20260902093013 | 15 | 138 | 6.4 | 16.1 | 0.00 | 0.00 | 0.00 | 1 | 1014.9 |
| 20260902092507 | 15 | 154 | 6.4 | 14.5 | 0.00 | 0.00 | 0.00 | 1 | 1015.0 |
| 20260902091958 | 15 | 153 | 3.2 | 11.3 | 0.00 | 0.00 | 0.00 | 1 | 1015.0 |
| 20260902091453 | 15 | 150 | 6.4 | 11.3 | 0.00 | 0.00 | 0.00 | 1 | 1015.0 |
| 20260902090947 | 15 | 144 | 1.6 | 11.3 | 0.00 | 0.00 | 0.00 | 1 | 1015.0 |
| 20260902090509 | 15 | 134 | 3.2 | 11.3 | 0.00 | 0.00 | 0.00 | 1 | 1015.1 |
| 20260902085954 | 15 | 64 | 1.6 | 6.4 | 0.00 | 0.00 | 0.00 | 1 | 1015.0 |
| 20260902085517 | 15 | 117 | 1.6 | 9.7 | 0.00 | 0.00 | 0.00 | 1 | 1015.0 |
| 20260902085009 | 15 | 105 | 1.6 | 11.3 | 0.00 | 0.00 | 0.00 | 1 | 1015.1 |
| 20260902084504 | 15 | 143 | 3.2 | 11.3 | 0.00 | 0.00 | 0.00 | 1 | 1015.1 |
| 20260902083949 | 15 | 136 | 3.2 | 6.4 | 0.00 | 0.00 | 0.00 | 1 | 1015.2 |
| 20260902083503 | 15 | 117 | 3.2 | 6.4 | 0.00 | 0.00 | 0.00 | 1 | 1015.2 |
| 20260902083005 | 15 | 90 | 3.2 | 6.4 | 0.00 | 0.00 | 0.00 | 1 | 1015.2 |
| 20260902082450 | 14 | 136 | 1.6 | 6.4 | 0.00 | 0.00 | 0.00 | 1 | 1015.2 |
| 20260902082005 | 14 | 109 | 3.2 | 8.0 | 0.00 | 0.00 | 0.00 | 1 | 1015.3 |
| 20260902081507 | 14 | 128 | 1.6 | 8.0 | 0.00 | 0.00 | 0.00 | 1 | 1015.3 |
| 20260902080953 | 14 | 175 | 3.2 | 6.4 | 0.00 | 0.00 | 0.00 | 1 | 1015.3 |
| 20260902080448 | 14 | 109 | 3.2 | 8.0 | 0.00 | 0.00 | 0.00 | 1 | 1015.2 |
| 20260902075941 | 14 | 133 | 1.6 | 8.0 | 0.00 | 0.00 | 0.00 | 1 | 1015.3 |
| 20260902075457 | 14 | 118 | 3.2 | 8.0 | 0.00 | 0.00 | 0.00 | 1 | 1015.2 |
| 20260902075008 | 14 | 142 | 3.2 | 6.4 | 0.00 | 0.00 | 0.00 | 1 | 1015.2 |
| 20260902074442 | 14 | 112 | 1.6 | 6.4 | 0.00 | 0.00 | 0.00 | 1 | 1015.1 |
| 20260902074016 | 14 | 113 | 1.6 | 4.8 | 0.00 | 0.00 | 0.00 | 1 | 1015.1 |
| 20260902073450 | 14 | 114 | 1.6 | 6.4 | 0.00 | 0.00 | 0.00 | 1 | 1015.2 |
| 20260902072946 | 14 | 109 | 3.2 | 6.4 | 0.00 | 0.00 | 0.00 | 1 | 1015.2 |
| 20260902072441 | 14 | 126 | 0.0 | 9.7 | 0.00 | 0.00 | 0.00 | 1 | 1015.2 |
| 20260902071956 | 14 | 134 | 1.6 | 9.7 | 0.00 | 0.00 | 0.00 | 1 | 1015.2 |
| 20260902071440 | 14 | 115 | 1.6 | 9.7 | 0.00 | 0.00 | 0.00 | 1 | 1015.2 |
| 20260902071004 | 14 | 114 | 1.6 | 6.4 | 0.00 | 0.00 | 0.00 | 1 | 1015.2 |
| 20260902070450 | 13 | 73 | 3.2 | 9.7 | 0.00 | 0.00 | 0.00 | 1 | 1015.2 |
| 20260902065944 | 13 | 123 | 1.6 | 6.4 | 0.00 | 0.00 | 0.00 | 1 | 1015.2 |
| 20260902065459 | 13 | 114 | 1.6 | 6.4 | 0.00 | 0.00 | 0.00 | 1 | 1015.2 |
| 20260902065014 | 13 | 109 | 1.6 | 4.8 | 0.00 | 0.00 | 0.00 | 1 | 1015.2 |
| 20260902064448 | 13 | 69 | 1.6 | 3.2 | 0.00 | 0.00 | 0.00 | 1 | 1015.2 |
| 20260902063943 | 13 | 130 | 0.0 | 4.8 | 0.00 | 0.00 | 0.00 | 1 | 1021.5 |
| 20260902063458 | 13 | 123 | 1.6 | 4.8 | 0.00 | 0.00 | 0.00 | 1 | 1015.1 |
| 20260902062952 | 13 | 130 | 1.6 | 8.0 | 0.00 | 0.00 | 0.00 | 1 | 1015.2 |
| 20260902062507 | 13 | 175 | 1.6 | 6.4 | 0.00 | 0.00 | 0.00 | 1 | 1015.2 |
| 20260902062001 | 13 | 116 | 1.6 | 6.4 | 0.00 | 0.00 | 0.00 | 1 | 1015.2 |
| 20260902061454 | 13 | 127 | 1.6 | 4.8 | 0.00 | 0.00 | 0.00 | 1 | 1015.2 |
| 20260902061034 | 13 | 137 | 0.0 | 4.8 | 0.00 | 0.00 | 0.00 | 1 | 1015.2 |
| 20260902060502 | 13 | 132 | 1.6 | 3.2 | 0.00 | 0.00 | 0.00 | 1 | 1015.2 |
| 20260902055957 | 13 | 109 | 0.0 | 3.2 | 0.00 | 0.00 | 0.00 | 1 | 1015.2 |
| 20260902055452 | 13 | 110 | 1.6 | 3.2 | 0.00 | 0.00 | 0.00 | 1 | 1015.2 |
| 20260902055006 | 13 | 122 | 1.6 | 3.2 | 0.00 | 0.00 | 0.00 | 1 | 1015.1 |
| 20260902054502 | -17 | 0.0 | 0.0 | 0.00 | 0.00 | 0.00 | 1015.1 | ||
| 20260902053955 | -17 | 0.0 | 0.0 | 0.00 | 0.00 | 0.00 | 1015.0 | ||
| 20260902053510 | -17 | 0.0 | 0.0 | 0.00 | 0.00 | 0.00 | 1015.1 | ||
| 20260902052944 | -17 | 0.0 | 0.0 | 0.00 | 0.00 | 0.00 | 1015.2 | ||
| 20260902052458 | -17 | 0.0 | 0.0 | 0.00 | 0.00 | 0.00 | 1015.1 | ||
| 20260902051945 | -17 | 0.0 | 0.0 | 0.00 | 0.00 | 0.00 | 1015.1 | ||
| 20260902051440 | -17 | 0.0 | 0.0 | 0.00 | 0.00 | 0.00 | 1015.2 | ||
| 20260902050955 | -17 | 0.0 | 0.0 | 0.00 | 0.00 | 0.00 | 1015.1 | ||
| 20260902050450 | -17 | 0.0 | 0.0 | 0.00 | 0.00 | 0.00 | 1015.1 | ||
| 20260902045944 | -17 | 0.0 | 0.0 | 0.00 | 0.00 | 0.00 | 1015.1 | ||
| 20260902045459 | -17 | 0.0 | 0.0 | 0.00 | 0.00 | 0.00 | 1015.1 | ||
| 20260902044954 | -17 | 0.0 | 0.0 | 0.00 | 0.00 | 0.00 | 1015.2 | ||
| 20260902044439 | -17 | 0.0 | 0.0 | 0.00 | 0.00 | 0.00 | 1015.2 | ||
| 20260902044003 | -17 | 0.0 | 0.0 | 0.00 | 0.00 | 0.00 | 1015.2 | ||
| 20260902043450 | -17 | 0.0 | 0.0 | 0.00 | 0.00 | 0.00 | 1015.3 | ||
| 20260902042945 | -17 | 0.0 | 0.0 | 0.00 | 0.00 | 0.00 | 1015.2 | ||
| 20260902042440 | -17 | 0.0 | 0.0 | 0.00 | 0.00 | 0.00 | 1015.2 | ||
| 20260902041508 | -17 | 0.0 | 0.0 | 0.00 | 0.00 | 0.00 | 1015.0 | ||
| 20260902041018 | -17 | 0.0 | 0.0 | 0.00 | 0.00 | 0.00 | 1014.9 | ||
| 20260902040511 | -17 | 0.0 | 0.0 | 0.00 | 0.00 | 0.00 | 1015.1 | ||
| 20260902040012 | -17 | 0.0 | 0.0 | 0.00 | 0.00 | 0.00 | 1015.1 | ||
| 20260902035505 | -17 | 0.0 | 0.0 | 0.00 | 0.00 | 0.00 | 1015.2 | ||
| 20260902034951 | -17 | 0.0 | 0.0 | 0.00 | 0.00 | 0.00 | 1015.3 | ||
| 20260902034515 | -17 | 0.0 | 0.0 | 0.00 | 0.00 | 0.00 | 1015.3 | ||
| 20260902033948 | -17 | 0.0 | 0.0 | 0.00 | 0.00 | 0.00 | 1015.2 | ||
| 20260902033503 | -17 | 0.0 | 0.0 | 0.00 | 0.00 | 0.00 | 1015.3 | ||
| 20260902032959 | -17 | 0.0 | 0.0 | 0.00 | 0.00 | 0.00 | 1015.3 | ||
| 20260902032514 | -17 | 0.0 | 0.0 | 0.00 | 0.00 | 0.00 | 1015.4 | ||
| 20260902032008 | -17 | 0.0 | 0.0 | 0.00 | 0.00 | 0.00 | 1015.5 | ||
| 20260902031502 | -17 | 0.0 | 0.0 | 0.00 | 0.00 | 0.00 | 1015.4 | ||
| 20260902030957 | -17 | 0.0 | 0.0 | 0.00 | 0.00 | 0.00 | 1015.5 | ||
| 20260902030443 | -17 | 0.0 | 0.0 | 0.00 | 0.00 | 0.00 | 1015.6 | ||
| 20260902030006 | -17 | 0.0 | 0.0 | 0.00 | 0.00 | 0.00 | 1015.5 | ||
| 20260902025453 | -17 | 0.0 | 0.0 | 0.00 | 0.00 | 0.00 | 1015.5 | ||
| 20260902024948 | -17 | 0.0 | 0.0 | 0.00 | 0.00 | 0.00 | 1015.6 | ||
| 20260902024503 | -17 | 0.0 | 0.0 | 0.00 | 0.00 | 0.00 | 1015.6 | ||
| 20260902023955 | -17 | 0.0 | 0.0 | 0.00 | 0.00 | 0.00 | 1015.7 | ||
| 20260902023450 | -17 | 0.0 | 0.0 | 0.00 | 0.00 | 0.00 | 1015.7 | ||
| 20260902022945 | -17 | 0.0 | 0.0 | 0.00 | 0.00 | 0.00 | 1015.8 | ||
| 20260902022456 | -17 | 0.0 | 0.0 | 0.00 | 0.00 | 0.00 | 1015.8 | ||
| 20260902022011 | -17 | 0.0 | 0.0 | 0.00 | 0.00 | 0.00 | 1015.8 | ||
| 20260902021446 | -17 | 0.0 | 0.0 | 0.00 | 0.00 | 0.00 | 1015.8 | ||
| 20260902020959 | -17 | 0.0 | 0.0 | 0.00 | 0.00 | 0.00 | 1015.9 | ||
| 20260902015959 | -17 | 0.0 | 0.0 | 0.00 | 0.00 | 0.00 | 1016.0 | ||
| 20260902015454 | -17 | 0.0 | 0.0 | 0.00 | 0.00 | 0.00 | 1016.0 | ||
| 20260902014948 | -17 | 0.0 | 0.0 | 0.00 | 0.00 | 0.00 | 1016.0 | ||
| 20260902014444 | -17 | 0.0 | 0.0 | 0.00 | 0.00 | 0.00 | 1016.0 | ||
| 20260902014019 | -17 | 0.0 | 0.0 | 0.00 | 0.00 | 0.00 | 1016.0 | ||
| 20260902013453 | -17 | 0.0 | 0.0 | 0.00 | 0.00 | 0.00 | 1016.0 | ||
| 20260902012948 | -17 | 0.0 | 0.0 | 0.00 | 0.00 | 0.00 | 1015.9 | ||
| 20260902012503 | -17 | 0.0 | 0.0 | 0.00 | 0.00 | 0.00 | 1015.8 | ||
| 20260902011958 | -17 | 0.0 | 0.0 | 0.00 | 0.00 | 0.00 | 1015.8 | ||
| 20260902011453 | -17 | 0.0 | 0.0 | 0.00 | 0.00 | 0.00 | 1015.9 | ||
| 20260902011008 | -17 | 0.0 | 0.0 | 0.00 | 0.00 | 0.00 | 1015.9 | ||
| 20260902010454 | -17 | 0.0 | 0.0 | 0.00 | 0.00 | 0.00 | 1015.9 | ||
| 20260902005949 | -17 | 0.0 | 0.0 | 0.00 | 0.00 | 0.00 | 1016.0 | ||
| 20260902005445 | -17 | 0.0 | 0.0 | 0.00 | 0.00 | 0.00 | 1016.0 | ||
| 20260902004941 | -17 | 0.0 | 0.0 | 0.00 | 0.00 | 0.00 | 1016.0 | ||
| 20260902004457 | -17 | 0.0 | 0.0 | 0.00 | 0.00 | 0.00 | 1016.0 | ||
| 20260902003450 | -17 | 0.0 | 0.0 | 0.00 | 0.00 | 0.00 | 1016.0 | ||
| 20260902002946 | -17 | 0.0 | 0.0 | 0.00 | 0.00 | 0.00 | 1016.1 | ||
| 20260902002441 | -17 | 0.0 | 0.0 | 0.00 | 0.00 | 0.00 | 1016.0 | ||
| 20260902001507 | 15 | 142 | 1.6 | 3.2 | 0.00 | 0.00 | 0.00 | 1 | 1016.0 |
| 20260902000942 | 15 | 142 | 1.6 | 3.2 | 0.00 | 0.00 | 0.00 | 1 | 1016.0 |
| 20260902000459 | 15 | 139 | 1.6 | 3.2 | 0.00 | 0.00 | 0.00 | 1 | 1016.1 |
| 20260902000013 | 15 | 131 | 1.6 | 3.2 | 0.00 | 0.00 | 0.00 | 1 | 1016.2 |
| 20260901235507 | 15 | 153 | 1.6 | 3.2 | 0.00 | 0.00 | 0.00 | 1 | 1016.2 |
| 20260901234941 | 15 | 150 | 1.6 | 3.2 | 0.00 | 0.00 | 0.00 | 1 | 1016.3 |
| 20260901234456 | 15 | 150 | 1.6 | 3.2 | 0.00 | 0.00 | 0.00 | 1 | 1016.3 |
| 20260901233952 | 15 | 119 | 0.0 | 1.6 | 0.00 | 0.00 | 0.00 | 1 | 1016.3 |
| 20260901233507 | 15 | 109 | 0.0 | 1.6 | 0.00 | 0.00 | 0.00 | 1 | 1016.3 |
| 20260901233002 | 16 | 109 | 0.0 | 3.2 | 0.00 | 0.00 | 0.00 | 1 | 1016.2 |
| 20260901232449 | 16 | 107 | 0.0 | 1.6 | 0.00 | 0.00 | 0.00 | 1 | 1016.3 |
| 20260901231944 | 16 | 107 | 0.0 | 4.8 | 0.00 | 0.00 | 0.00 | 1 | 1016.3 |
| 20260901231508 | 16 | 97 | 1.6 | 4.8 | 0.00 | 0.00 | 0.00 | 1 | 1016.2 |
| 20260901230954 | 16 | 156 | 0.0 | 3.2 | 0.00 | 0.00 | 0.00 | 1 | 1016.2 |
| 20260901230505 | 16 | 156 | 0.0 | 3.2 | 0.00 | 0.00 | 0.00 | 1 | 1022.6 |
| 20260901230006 | 16 | 157 | 0.0 | 4.8 | 0.00 | 0.00 | 0.00 | 1 | 1016.3 |
| 20260901225519 | 16 | 155 | 1.6 | 4.8 | 0.00 | 0.00 | 0.00 | 1 | 1016.3 |
| 20260901224951 | 16 | 134 | 3.2 | 6.4 | 0.00 | 0.00 | 0.00 | 1 | 1016.3 |
| 20260901224504 | 16 | 122 | 3.2 | 4.8 | 0.00 | 0.00 | 0.00 | 1 | 1016.3 |
| 20260901223950 | 16 | 132 | 1.6 | 4.8 | 0.00 | 0.00 | 0.00 | 1 | 1016.3 |
| 20260901223445 | 16 | 101 | 1.6 | 3.2 | 0.00 | 0.00 | 0.00 | 1 | 1016.3 |
| 20260901223029 | 16 | 145 | 1.6 | 3.2 | 0.00 | 0.00 | 0.00 | 1 | 1016.3 |
| 20260901222454 | 16 | 145 | 0.0 | 4.8 | 0.00 | 0.00 | 0.00 | 1 | 1016.3 |
| 20260901221957 | 16 | 148 | 3.2 | 4.8 | 0.00 | 0.00 | 0.00 | 1 | 1016.2 |
| 20260901221444 | 16 | 175 | 0.0 | 3.2 | 0.00 | 0.00 | 0.00 | 1 | 1016.2 |
| 20260901221006 | 16 | 175 | 1.6 | 3.2 | 0.00 | 0.00 | 0.00 | 1 | 1016.3 |
| 20260901220501 | 16 | 189 | 0.0 | 3.2 | 0.00 | 0.00 | 0.00 | 1 | 1016.3 |
| 20260901220015 | 16 | 197 | 0.0 | 3.2 | 0.00 | 0.00 | 0.00 | 1 | 1016.3 |
| 20260901215451 | 16 | 197 | 0.0 | 3.2 | 0.00 | 0.00 | 0.00 | 1 | 1016.2 |
| 20260901215005 | 16 | 202 | 0.0 | 3.2 | 0.00 | 0.00 | 0.00 | 1 | 1016.3 |
| 20260901214451 | 16 | 205 | 0.0 | 4.8 | 0.00 | 0.00 | 0.00 | 1 | 1016.3 |
| 20260901213946 | 16 | 205 | 1.6 | 4.8 | 0.00 | 0.00 | 0.00 | 1 | 1016.3 |
| 20260901213440 | 16 | 192 | 1.6 | 4.8 | 0.00 | 0.00 | 0.00 | 1 | 1016.3 |
| 20260901212956 | 16 | 198 | 0.0 | 4.8 | 0.00 | 0.00 | 0.00 | 1 | 1016.3 |
| 20260901212450 | 16 | 217 | 1.6 | 6.4 | 0.00 | 0.00 | 0.00 | 1 | 1016.3 |
| 20260901211945 | 16 | 234 | 3.2 | 8.0 | 0.00 | 0.00 | 0.00 | 1 | 1016.3 |
| 20260901211515 | 16 | 208 | 3.2 | 9.7 | 0.00 | 0.00 | 0.00 | 1 | 1016.4 |
| 20260901211008 | 16 | 220 | 3.2 | 9.7 | 0.00 | 0.00 | 0.00 | 1 | 1016.3 |
| 20260901210442 | 16 | 244 | 1.6 | 6.4 | 0.00 | 0.00 | 0.00 | 1 | 1016.3 |
| 20260901210018 | 16 | 249 | 1.6 | 6.4 | 0.00 | 0.00 | 0.00 | 1 | 1016.3 |
| 20260901205451 | 17 | 242 | 1.6 | 8.0 | 0.00 | 0.00 | 0.00 | 1 | 1016.4 |
| 20260901204946 | 17 | 217 | 1.6 | 11.3 | 0.00 | 0.00 | 0.00 | 1 | 1016.3 |
| 20260901204440 | 17 | 243 | 1.6 | 12.9 | 0.00 | 0.00 | 0.00 | 1 | 1016.3 |
| 20260901203955 | 17 | 227 | 3.2 | 12.9 | 0.00 | 0.00 | 0.00 | 1 | 1016.4 |
| 20260901203510 | 17 | 209 | 3.2 | 11.3 | 0.00 | 0.00 | 0.00 | 1 | 1016.4 |
| 20260901202943 | 17 | 210 | 4.8 | 9.7 | 0.00 | 0.00 | 0.00 | 1 | 1022.7 |
| 20260901202458 | 17 | 227 | 3.2 | 9.7 | 0.00 | 0.00 | 0.00 | 1 | 1016.4 |
| 20260901201952 | 17 | 214 | 3.2 | 11.3 | 0.00 | 0.00 | 0.00 | 1 | 1016.5 |
| 20260901201447 | 17 | 244 | 1.6 | 11.3 | 0.00 | 0.00 | 0.00 | 1 | 1016.5 |
| 20260901200940 | 17 | 238 | 3.2 | 9.7 | 0.00 | 0.00 | 0.00 | 1 | 1016.5 |
| 20260901200456 | 17 | 230 | 1.6 | 9.7 | 0.00 | 0.00 | 0.00 | 1 | 1016.5 |
| 20260901195951 | 17 | 207 | 1.6 | 6.4 | 0.00 | 0.00 | 0.00 | 1 | 1016.5 |
| 20260901195445 | 17 | 208 | 1.6 | 11.3 | 0.00 | 0.00 | 0.00 | 1 | 1016.4 |
| 20260901194959 | 17 | 208 | 4.8 | 11.3 | 0.00 | 0.00 | 0.00 | 1 | 1016.5 |
| 20260901194514 | 17 | 234 | 1.6 | 6.4 | 0.00 | 0.00 | 0.00 | 1 | 1016.5 |
| 20260901193949 | 17 | 249 | 1.6 | 4.8 | 0.00 | 0.00 | 0.00 | 1 | 1016.4 |
| 20260901193444 | 17 | 214 | 0.0 | 6.4 | 0.00 | 0.00 | 0.00 | 1 | 1022.6 |
| 20260901192955 | 17 | 219 | 1.6 | 6.4 | 0.00 | 0.00 | 0.00 | 1 | 1016.3 |
| 20260901192450 | 17 | 230 | 1.6 | 6.4 | 0.00 | 0.00 | 0.00 | 1 | 1016.3 |
| 20260901192004 | 17 | 219 | 1.6 | 6.4 | 0.00 | 0.00 | 0.00 | 1 | 1016.3 |
| 20260901191450 | 18 | 227 | 1.6 | 6.4 | 0.00 | 0.00 | 0.00 | 1 | 1016.3 |
| 20260901190945 | 18 | 224 | 1.6 | 8.0 | 0.00 | 0.00 | 0.00 | 1 | 1016.2 |
| 20260901190529 | 18 | 236 | 1.6 | 8.0 | 0.00 | 0.00 | 0.00 | 1 | 1016.2 |
| 20260901185952 | 18 | 266 | 3.2 | 9.7 | 0.00 | 0.00 | 0.00 | 1 | 1016.1 |
| 20260901185516 | 18 | 248 | 3.2 | 12.9 | 0.00 | 0.00 | 0.00 | 1 | 1016.2 |
| 20260901184940 | 18 | 229 | 3.2 | 8.0 | 0.00 | 0.00 | 0.00 | 1 | 1016.1 |
| 20260901184455 | 18 | 239 | 3.2 | 8.0 | 0.00 | 0.00 | 0.00 | 1 | 1016.2 |
| 20260901183950 | 18 | 231 | 1.6 | 8.0 | 0.00 | 0.00 | 0.00 | 1 | 1016.1 |
| 20260901183446 | 18 | 259 | 3.2 | 8.0 | 0.00 | 0.00 | 0.00 | 1 | 1016.2 |
| 20260901183030 | 18 | 248 | 3.2 | 11.3 | 0.00 | 0.00 | 0.00 | 1 | 1016.2 |
| 20260901182522 | 18 | 220 | 6.4 | 11.3 | 0.00 | 0.00 | 0.00 | 1 | 1016.1 |
| 20260901181949 | 18 | 299 | 4.8 | 14.5 | 0.00 | 0.00 | 0.00 | 1 | 1016.1 |
| 20260901181444 | 18 | 259 | 6.4 | 14.5 | 0.00 | 0.00 | 0.00 | 1 | 1016.1 |
| 20260901180940 | 18 | 258 | 4.8 | 17.7 | 0.00 | 0.00 | 0.00 | 5 | 1016.1 |
| 20260901180456 | 18 | 248 | 11.3 | 17.7 | 0.00 | 0.00 | 0.00 | 7 | 1016.2 |
| 20260901175948 | 18 | 265 | 8.0 | 17.7 | 0.00 | 0.00 | 0.00 | 9 | 1016.3 |
| 20260901175442 | 19 | 271 | 8.0 | 17.7 | 0.00 | 0.00 | 0.00 | 11 | 1016.3 |
| 20260901174958 | 19 | 263 | 9.7 | 27.4 | 0.00 | 0.00 | 0.00 | 14 | 1016.3 |
| 20260901174450 | 19 | 221 | 9.7 | 27.4 | 0.00 | 0.00 | 0.00 | 16 | 1016.3 |
| 20260901173945 | 19 | 271 | 11.3 | 24.1 | 0.00 | 0.00 | 0.00 | 17 | 1016.3 |
| 20260901173459 | 19 | 284 | 12.9 | 22.5 | 0.00 | 0.00 | 0.00 | 19 | 1016.3 |
| 20260901173009 | 19 | 223 | 6.4 | 16.1 | 0.00 | 0.00 | 0.00 | 20 | 1016.2 |
| 20260901172443 | 20 | 218 | 8.0 | 17.7 | 0.00 | 0.00 | 0.00 | 22 | 1016.2 |
| 20260901171958 | 20 | 247 | 4.8 | 16.1 | 0.00 | 0.00 | 0.00 | 24 | 1016.3 |
| 20260901171512 | 20 | 234 | 6.4 | 16.1 | 0.00 | 0.00 | 0.00 | 20 | 1016.3 |
| 20260901170945 | 20 | 286 | 6.4 | 12.9 | 0.00 | 0.00 | 0.00 | 22 | 1016.3 |
| 20260901170459 | 20 | 224 | 8.0 | 19.3 | 0.00 | 0.00 | 0.00 | 22 | 1016.3 |
| 20260901165953 | 20 | 278 | 8.0 | 22.5 | 0.00 | 0.00 | 0.00 | 24 | 1016.2 |
| 20260901165448 | 20 | 303 | 12.9 | 22.5 | 0.00 | 0.00 | 0.00 | 24 | 1016.2 |
| 20260901165004 | 20 | 252 | 11.3 | 20.9 | 0.00 | 0.00 | 0.00 | 26 | 1016.2 |
| 20260901164457 | 19 | 253 | 4.8 | 20.9 | 0.00 | 0.00 | 0.00 | 25 | 1016.3 |
| 20260901163943 | 19 | 223 | 9.7 | 19.3 | 0.00 | 0.00 | 0.00 | 23 | 1016.3 |
| 20260901163527 | 19 | 259 | 9.7 | 19.3 | 0.00 | 0.00 | 0.00 | 20 | 1016.2 |
| 20260901163000 | 19 | 223 | 8.0 | 19.3 | 0.00 | 0.00 | 0.00 | 12 | 1016.2 |
| 20260901162515 | 19 | 252 | 8.0 | 17.7 | 0.00 | 0.00 | 0.00 | 9 | 1016.2 |
| 20260901162005 | 19 | 256 | 9.7 | 20.9 | 0.00 | 0.00 | 0.00 | 7 | 1016.2 |
| 20260901161457 | 19 | 213 | 12.9 | 20.9 | 0.00 | 0.00 | 0.00 | 5 | 1016.3 |
| 20260901160943 | 19 | 255 | 8.0 | 19.3 | 0.00 | 0.00 | 0.00 | 1 | 1022.7 |
| 20260901160508 | 19 | 259 | 11.3 | 24.1 | 0.00 | 0.00 | 0.00 | 1 | 1016.4 |
| 20260901155959 | 19 | 269 | 9.7 | 24.1 | 0.00 | 0.00 | 0.00 | 1 | 1016.3 |
| 20260901155444 | 19 | 259 | 12.9 | 22.5 | 0.00 | 0.00 | 0.00 | 1 | 1016.5 |
| 20260901155007 | 19 | 236 | 9.7 | 22.5 | 0.00 | 0.00 | 0.00 | 1 | 1016.4 |
| 20260901154453 | 20 | 270 | 11.3 | 24.1 | 0.00 | 0.00 | 0.00 | 1 | 1016.8 |
| 20260901153948 | 20 | 253 | 11.3 | 24.1 | 0.00 | 0.00 | 0.00 | 1 | 1016.5 |
| 20260901153455 | 20 | 267 | 9.7 | 17.7 | 0.00 | 0.00 | 0.00 | 1 | 1016.4 |
| 20260901152950 | 20 | 254 | 6.4 | 19.3 | 0.00 | 0.00 | 0.00 | 1 | 1016.3 |
| 20260901152445 | 20 | 234 | 4.8 | 20.9 | 0.00 | 0.00 | 0.00 | 1 | 1016.4 |
| 20260901152000 | 20 | 273 | 11.3 | 19.3 | 0.00 | 0.00 | 0.00 | 1 | 1016.4 |
| 20260901151455 | 20 | 284 | 11.3 | 19.3 | 0.00 | 0.00 | 0.00 | 1 | 1016.4 |
| 20260901151010 | 20 | 258 | 9.7 | 17.7 | 0.00 | 0.00 | 0.00 | 1 | 1016.3 |
| 20260901150504 | 20 | 275 | 9.7 | 17.7 | 0.00 | 0.00 | 0.00 | 1 | 1016.4 |
| 20260901145958 | 20 | 232 | 6.4 | 16.1 | 0.00 | 0.00 | 0.00 | 3 | 1016.5 |
| 20260901145444 | 20 | 217 | 9.7 | 20.9 | 0.00 | 0.00 | 0.00 | 3 | 1016.4 |
| 20260901145008 | 20 | 246 | 8.0 | 20.9 | 0.00 | 0.00 | 0.00 | 9 | 1016.3 |
| 20260901144450 | 20 | 267 | 11.3 | 19.3 | 0.00 | 0.00 | 0.00 | 11 | 1016.3 |
| 20260901143945 | 20 | 232 | 9.7 | 24.1 | 0.00 | 0.00 | 0.00 | 10 | 1016.3 |
| 20260901143457 | 20 | 308 | 9.7 | 25.7 | 0.00 | 0.00 | 0.00 | 8 | 1016.4 |
| 20260901142952 | 20 | 269 | 11.3 | 25.7 | 0.00 | 0.00 | 0.00 | 12 | 1016.4 |
| 20260901142447 | 20 | 208 | 12.9 | 25.7 | 0.00 | 0.00 | 0.00 | 16 | 1016.4 |
| 20260901141944 | 20 | 277 | 8.0 | 22.5 | 0.00 | 0.00 | 0.00 | 16 | 1016.5 |
| 20260901141517 | 20 | 205 | 11.3 | 24.1 | 0.00 | 0.00 | 0.00 | 18 | 1016.5 |